Terminal Aerodrome Forecast
Issued by NWS Omaha/Valley, NE

Home | Current Version | Previous Version | Graphics & Text | Print | Product List | Glossary On
Versions: 1 2 3 4 5 6 7 8 9 10 11 12 13 14 15 16 17 18 19 20 21 22 23 24 25 26 27 28 29 30 31 32 33 34 35 36 37 38 39 40 41
000
FTUS43 KOAX 242003 AAA
TAFOFK
TAF AMD
KOFK 242003Z 2420/2518 20014KT P6SM SCT025
     FM242200 17011KT P6SM BKN025
     FM250100 13006KT P6SM BKN025
      TEMPO 2502/2504 34018G28KT 3SM -RA BKN015
     FM250400 09005KT P6SM OVC008
     FM251200 36013KT P6SM OVC012=

USA.gov is the U.S. government's official web portal to all federal, state and local government web resources and services.